Language: 


Des rapports , des résumés tant et plus, au choix de chacun....


Données Historiques de Météogheer
Journalier Rapport pour Décembre 31, 2017 Unitée:  Impériale    Métrique   Les deux
Suivant Jour »
Journalier Hebdomadaire Mensuel Annuel Sur mesure
  Max: Min: Moyenne:
Température: 57.6 °F 45.3 °F 53.2 °F
Point de rosée: 55.4 °F 41 °F 52 °F
Humidité: 98% 76% 93%
Vent: 33.1mph 0mph 13.2mph
Rafales: 37.4mph - -
Vent- - SW
Pression: 29.6 in 29.4 in -
Pluie: 0.73 in    
Historical Graphs
 
 
Données tabulaires pour Décembre 31, 2017
Heure Température Point de rosée Pression Vent Vent Rafales Humidité Pluie Taux (Horaire) Conditions
00:01 50.9 °F 51.8 °F 29.6 in South 3.8 mph 7.2 mph 98% 0.03 in
00:03 50.9 °F 51.8 °F 29.6 in SSW 4 mph 7.4 mph 98% 0.03 in
00:08 50.9 °F 51.8 °F 29.6 in South 6.9 mph 8.5 mph 98% 0.02 in
00:13 51.1 °F 51.8 °F 29.6 in Calm   8.5 mph 98% 0.02 in
00:16 51.1 °F 51.8 °F 29.6 in Calm   8.5 mph 98% 0.02 in
00:21 51.1 °F 51.8 °F 29.6 in South 4.9 mph 7.8 mph 98% 0.02 in
00:22 51.1 °F 51.8 °F 29.6 in SSW 6 mph 7.8 mph 98% 0.03 in
00:26 51.1 °F 51.8 °F 29.6 in Calm   7.8 mph 98% 0.02 in
00:29 51.3 °F 51.8 °F 29.6 in South 5.4 mph 8.7 mph 98% 0.04 in
00:34 51.4 °F 51.8 °F 29.6 in SSW 4.3 mph 8.7 mph 98% 0.04 in
00:39 51.6 °F 51.8 °F 29.6 in South 6.3 mph 8.7 mph 98% 0.05 in
00:44 51.6 °F 51.8 °F 29.6 in SSW 4 mph 8.1 mph 98% 0.05 in
00:48 51.8 °F 51.8 °F 29.6 in SSW 1.1 mph 7.4 mph 98% 0.04 in
00:53 52 °F 51.8 °F 29.6 in South 5.4 mph 8.9 mph 98% 0.05 in
00:55 52 °F 51.8 °F 29.6 in SW 6.3 mph 8.9 mph 98% 0.06 in
01:00 52.2 °F 51.8 °F 29.6 in SSW 6.5 mph 8.1 mph 98% 0.07 in
01:04 52.3 °F 51.8 °F 29.6 in SSW 5.8 mph 8.7 mph 98% 0.09 in
01:06 52.3 °F 51.8 °F 29.6 in SW 8.1 mph 8.7 mph 98% 0.09 in
01:10 52.5 °F 51.8 °F 29.6 in SSW 6.5 mph 10.3 mph 98% 0.1 in
01:13 52.7 °F 53.6 °F 29.6 in SSW 5.8 mph 10.3 mph 98% 0.1 in
01:18 52.9 °F 53.6 °F 29.6 in SSW 9.4 mph 10.3 mph 98% 0.11 in
01:22 52.9 °F 53.6 °F 29.6 in WSW 8.1 mph 10.7 mph 98% 0.11 in
01:27 53.2 °F 53.6 °F 29.6 in WSW 8.9 mph 11 mph 98% 0.12 in
01:29 53.4 °F 53.6 °F 29.6 in SSW 9.8 mph 13.4 mph 98% 0.11 in
01:34 53.6 °F 53.6 °F 29.6 in SSW 10.1 mph 13.6 mph 98% 0.12 in
01:35 53.6 °F 53.6 °F 29.6 in WSW 12.5 mph 13.6 mph 98% 0.12 in
01:40 54 °F 53.6 °F 29.6 in SSW 10.7 mph 15.2 mph 98% 0.11 in
01:43 54 °F 53.6 °F 29.6 in SW 11.4 mph 15.2 mph 98% 0.11 in
01:48 54.1 °F 55.4 °F 29.6 in SW 14.1 mph 15.4 mph 98% 0.11 in
01:52 54.1 °F 55.4 °F 29.6 in SSW 8.7 mph 15.4 mph 98% 0.11 in
01:57 54.3 °F 55.4 °F 29.6 in WSW 10.7 mph 17.9 mph 98% 0.09 in
02:02 54.3 °F 55.4 °F 29.6 in WSW 9.8 mph 17.9 mph 98% 0.07 in
02:07 54.5 °F 55.4 °F 29.6 in SSW 12.8 mph 16.3 mph 98% 0.07 in
02:11 54.5 °F 55.4 °F 29.6 in SW 15.9 mph 15.9 mph 98% 0.06 in
02:16 54.5 °F 55.4 °F 29.6 in SW 10.1 mph 15.9 mph 98% 0.05 in
02:17 54.5 °F 55.4 °F 29.6 in SSW 18.1 mph 18.1 mph 98% 0.05 in
02:22 54.5 °F 55.4 °F 29.6 in SW 8.5 mph 18.1 mph 98% 0.03 in
02:24 54.5 °F 55.4 °F 29.6 in WSW 15.2 mph 18.1 mph 98% 0.03 in
02:29 54.7 °F 55.4 °F 29.6 in WSW 17.4 mph 19 mph 98% 0.02 in
02:34 54.5 °F 55.4 °F 29.6 in WSW 17.2 mph 19 mph 98% 0.01 in
02:36 54.5 °F 55.4 °F 29.6 in WSW 12.8 mph 19 mph 98% 0.01 in
02:41 54.5 °F 55.4 °F 29.6 in WSW 10.7 mph 17.2 mph 98% 0.02 in
02:46 54.5 °F 55.4 °F 29.6 in SSW 9.6 mph 19.9 mph 98% 0.02 in
02:48 54.5 °F 55.4 °F 29.6 in SW 11.2 mph 19.9 mph 98% 0.02 in
02:53 54.5 °F 55.4 °F 29.6 in SW 7.6 mph 19.9 mph 98% 0.01 in
02:55 54.5 °F 55.4 °F 29.6 in SSW 8.7 mph 15.4 mph 98% 0.02 in
03:00 54.5 °F 55.4 °F 29.6 in SW 13.2 mph 13.2 mph 98% 0.02 in
03:02 54.5 °F 55.4 °F 29.6 in WSW 12.1 mph 15.4 mph 98% 0.04 in
03:07 54.5 °F 55.4 °F 29.6 in WSW 8.7 mph 15.4 mph 98% 0.05 in
03:12 54.5 °F 55.4 °F 29.6 in WSW 7.8 mph 13.4 mph 98% 0.05 in
03:14 54.5 °F 55.4 °F 29.6 in SSW 11 mph 13.9 mph 98% 0.05 in
03:16 54.3 °F 55.4 °F 29.6 in SSW 8.7 mph 14.8 mph 98% 0.06 in
03:21 54.3 °F 55.4 °F 29.6 in South 7.8 mph 14.8 mph 98% 0.06 in
03:23 54.3 °F 55.4 °F 29.6 in SW 7.6 mph 14.8 mph 98% 0.06 in
03:27 54.3 °F 55.4 °F 29.6 in SW 7.8 mph 13.2 mph 98% 0.06 in
03:30 54.3 °F 55.4 °F 29.6 in SSW 7.6 mph 12.5 mph 98% 0.06 in
03:31 54.1 °F 55.4 °F 29.6 in SW 10.1 mph 12.5 mph 98% 0.06 in
03:36 54.1 °F 55.4 °F 29.6 in SSW 10.5 mph 13 mph 98% 0.06 in
03:37 54.1 °F 55.4 °F 29.6 in SW 8.1 mph 13 mph 98% 0.06 in
03:40 54.1 °F 55.4 °F 29.6 in SSW 10.3 mph 13 mph 98% 0.07 in
03:45 54.3 °F 55.4 °F 29.6 in SSW 11.9 mph 13.2 mph 98% 0.06 in
03:49 54.5 °F 55.4 °F 29.6 in SSW 14.5 mph 17 mph 98% 0.06 in
03:54 54.5 °F 55.4 °F 29.6 in SSW 12.1 mph 17 mph 98% 0.06 in
03:55 54.5 °F 55.4 °F 29.6 in SSW 17.4 mph 17.4 mph 98% 0.05 in
04:00 54.7 °F 55.4 °F 29.6 in WSW 10.5 mph 17.4 mph 98% 0.05 in
04:05 54.9 °F 55.4 °F 29.6 in WSW 13.2 mph 19.2 mph 98% 0.03 in
04:06 55 °F 55.4 °F 29.6 in SW 14.3 mph 19.2 mph 98% 0.02 in
04:07 55 °F 55.4 °F 29.6 in SW 15.9 mph 19.2 mph 98% 0.02 in
04:13 55.2 °F 55.4 °F 29.6 in SSW 9.6 mph 19.2 mph 98% 0.02 in
04:18 55.4 °F 55.4 °F 29.6 in SSW 15.2 mph 19.7 mph 98% 0.01 in
04:24 55.6 °F 55.4 °F 29.6 in SSW 15.7 mph 25.7 mph 97% 0.01 in
04:29 55.8 °F 55.4 °F 29.6 in WSW 17.9 mph 25.7 mph 95% 0.01 in
04:31 55.8 °F 55.4 °F 29.6 in SW 17.7 mph 19.9 mph 95% 0.01 in
04:36 56.1 °F 55.4 °F 29.6 in SW 13.9 mph 26.2 mph 93% 0.01 in
04:37 56.1 °F 55.4 °F 29.6 in SW 15.2 mph 26.2 mph 93% 0.01 in
04:42 56.1 °F 53.6 °F 29.6 in SSW 17 mph 26.2 mph 92% 0 in
04:47 56.3 °F 55.4 °F 29.6 in SSW 12.5 mph 26.2 mph 91% 0 in
04:49 56.3 °F 53.6 °F 29.6 in SW 11 mph 26.2 mph 90% 0 in
04:54 56.3 °F 53.6 °F 29.6 in WSW 15.2 mph 19.5 mph 90% 0 in
04:58 56.3 °F 53.6 °F 29.6 in WSW 14.3 mph 23.9 mph 89% 0 in
05:03 56.3 °F 53.6 °F 29.6 in SSW 11.4 mph 23.9 mph 89% 0 in
05:08 56.3 °F 53.6 °F 29.6 in WSW 15.7 mph 16.8 mph 89% 0 in
05:13 56.3 °F 53.6 °F 29.6 in SW 15.4 mph 21.3 mph 88% 0 in
05:14 56.3 °F 53.6 °F 29.6 in SSW 17.4 mph 21.3 mph 88% 0 in
05:19 56.3 °F 53.6 °F 29.6 in SSW 10.3 mph 21.3 mph 88% 0 in
05:23 56.3 °F 53.6 °F 29.6 in SW 21.9 mph 21.9 mph 87% 0 in
05:28 56.3 °F 53.6 °F 29.6 in SSW 15.7 mph 21.9 mph 87% 0 in
05:30 56.3 °F 53.6 °F 29.6 in SW 10.1 mph 21.9 mph 87% 0 in
05:35 56.3 °F 53.6 °F 29.6 in South 10.7 mph 21.5 mph 87% 0 in
05:36 56.3 °F 53.6 °F 29.6 in SSW 17.4 mph 20.4 mph 87% 0 in
05:41 56.3 °F 53.6 °F 29.6 in SSW 10.7 mph 19.5 mph 87% 0 in
05:43 56.3 °F 53.6 °F 29.6 in SSW 13 mph 19.5 mph 87% 0 in
05:48 56.1 °F 51.8 °F 29.6 in WSW 10.3 mph 19.5 mph 86% 0 in
05:50 56.1 °F 51.8 °F 29.6 in SW 13.2 mph 18.8 mph 86% 0 in
05:54 56.1 °F 51.8 °F 29.6 in SW 10.5 mph 18.8 mph 86% 0 in
05:57 56.1 °F 51.8 °F 29.6 in SSW 19.2 mph 19.2 mph 86% 0 in
06:00 56.1 °F 51.8 °F 29.6 in SSW 13 mph 19.5 mph 86% 0 in
06:05 56.3 °F 53.6 °F 29.6 in SW 17.2 mph 19.5 mph 85% 0 in
06:09 56.3 °F 53.6 °F 29.6 in SSW 10.3 mph 18.8 mph 85% 0 in
06:14 56.5 °F 51.8 °F 29.6 in SSW 14.3 mph 18.8 mph 84% 0 in
06:15 56.5 °F 51.8 °F 29.6 in SSW 15.7 mph 18.8 mph 84% 0 in
06:20 56.5 °F 51.8 °F 29.6 in SW 14.8 mph 19 mph 84% 0 in
06:24 56.5 °F 51.8 °F 29.6 in WSW 17.9 mph 19.9 mph 84% 0 in
06:28 56.3 °F 51.8 °F 29.6 in SSW 13.2 mph 21 mph 84% 0 in
06:29 56.3 °F 53.6 °F 29.6 in SW 16.8 mph 21 mph 85% 0 in
06:34 55.9 °F 51.8 °F 29.6 in SW 18.6 mph 21 mph 85% 0 in
06:35 55.9 °F 51.8 °F 29.6 in SW 17 mph 21 mph 85% 0 in
06:36 55.9 °F 51.8 °F 29.6 in SSW 22.6 mph 22.6 mph 85% 0 in
06:37 55.9 °F 51.8 °F 29.6 in SW 17.4 mph 22.6 mph 86% 0 in
06:41 55.9 °F 51.8 °F 29.6 in SSW 13 mph 22.6 mph 86% 0 in
06:44 55.9 °F 51.8 °F 29.6 in SSW 10.5 mph 22.8 mph 86% 0 in
06:48 55.8 °F 53.6 °F 29.6 in WSW 17.7 mph 22.8 mph 87% 0 in
06:51 55.8 °F 53.6 °F 29.6 in SSW 11 mph 22.8 mph 87% 0 in
06:56 55.4 °F 53.6 °F 29.6 in SW 21.5 mph 21.5 mph 89% 0 in
06:58 55.2 °F 53.6 °F 29.6 in SW 11 mph 21.5 mph 90% 0 in
07:02 55 °F 53.6 °F 29.6 in SSW 12.5 mph 23.9 mph 91% 0 in
07:04 54.9 °F 53.6 °F 29.6 in SW 14.3 mph 23.9 mph 92% 0 in
07:09 54.5 °F 53.6 °F 29.6 in SSW 15.2 mph 23.9 mph 93% 0 in
07:14 54.5 °F 53.6 °F 29.5 in SW 16.1 mph 20.6 mph 93% 0 in
07:15 54.5 °F 53.6 °F 29.5 in SSW 11 mph 19.7 mph 94% 0 in
07:21 54.3 °F 53.6 °F 29.5 in SW 17.7 mph 21.9 mph 94% 0 in
07:23 54.3 °F 53.6 °F 29.5 in SSW 13 mph 21.9 mph 95% 0 in
07:28 54.3 °F 53.6 °F 29.6 in SW 15.2 mph 21.9 mph 95% 0 in
07:29 54.3 °F 53.6 °F 29.6 in SSW 15.2 mph 21.9 mph 95% 0 in
07:34 54.5 °F 53.6 °F 29.6 in WSW 12.5 mph 17.4 mph 95% 0 in
07:36 54.5 °F 55.4 °F 29.6 in SW 12.5 mph 17.4 mph 96% 0 in
07:41 54.5 °F 53.6 °F 29.6 in SSW 11 mph 19.5 mph 95% 0 in
07:46 54.7 °F 53.6 °F 29.6 in WSW 17 mph 19.5 mph 95% 0 in
07:47 54.7 °F 53.6 °F 29.6 in SSW 12.3 mph 19.5 mph 95% 0 in
07:49 54.7 °F 53.6 °F 29.6 in SSW 15.7 mph 18.8 mph 95% 0 in
07:54 54.9 °F 53.6 °F 29.6 in SW 19.5 mph 19.5 mph 95% 0 in
07:55 54.9 °F 53.6 °F 29.6 in SW 12.8 mph 19.5 mph 95% 0 in
07:56 54.9 °F 53.6 °F 29.6 in SW 10.7 mph 19.5 mph 95% 0 in
08:01 54.9 °F 53.6 °F 29.6 in SSW 15.9 mph 23.7 mph 95% 0 in
08:03 54.9 °F 53.6 °F 29.6 in SSW 14.5 mph 23.7 mph 95% 0 in
08:04 54.9 °F 53.6 °F 29.6 in SW 19.7 mph 23.7 mph 95% 0 in
08:09 54.9 °F 53.6 °F 29.6 in South 15.2 mph 19.7 mph 95% 0 in
08:14 54.7 °F 53.6 °F 29.6 in SSW 16.1 mph 19.9 mph 95% 0 in
08:16 54.7 °F 55.4 °F 29.6 in SSW 10.5 mph 19.9 mph 96% 0 in
08:21 54.9 °F 55.4 °F 29.6 in SSW 14.5 mph 19.7 mph 96% 0 in
08:24 54.9 °F 53.6 °F 29.6 in SW 13 mph 19.9 mph 95% 0 in
08:30 55 °F 55.4 °F 29.6 in SW 11 mph 19.9 mph 95% 0 in
08:35 55 °F 55.4 °F 29.6 in SSW 8.1 mph 22.1 mph 95% 0 in
08:36 55 °F 55.4 °F 29.6 in SW 19 mph 22.1 mph 95% 0 in
08:41 55.2 °F 55.4 °F 29.6 in South 11 mph 22.1 mph 95% 0 in
08:42 55.2 °F 53.6 °F 29.6 in South 15.2 mph 22.1 mph 94% 0 in
08:47 55.2 °F 53.6 °F 29.6 in WSW 10.5 mph 18.8 mph 94% 0 in
08:52 55.4 °F 53.6 °F 29.6 in SW 11.2 mph 19.7 mph 93% 0 in
08:54 55.4 °F 53.6 °F 29.6 in SSW 10.3 mph 19.7 mph 93% 0 in
08:56 55.4 °F 53.6 °F 29.5 in WSW 7.8 mph 19.7 mph 93% 0 in
09:01 55.4 °F 53.6 °F 29.5 in SW 12.8 mph 17.4 mph 93% 0 in
09:06 55.6 °F 53.6 °F 29.5 in South 12.1 mph 17.4 mph 92% 0 in
09:09 55.6 °F 53.6 °F 29.5 in WSW 11 mph 17.4 mph 92% 0 in
09:14 55.6 °F 53.6 °F 29.5 in SW 8.7 mph 17.4 mph 92% 0 in
09:15 55.6 °F 53.6 °F 29.5 in WSW 17.4 mph 17.4 mph 92% 0 in
09:18 55.6 °F 53.6 °F 29.5 in South 12.1 mph 17.4 mph 92% 0 in
09:23 55.6 °F 53.6 °F 29.5 in South 14.5 mph 17.4 mph 92% 0 in
09:27 55.6 °F 53.6 °F 29.5 in SSW 17 mph 19.7 mph 92% 0 in
09:32 55.6 °F 53.6 °F 29.5 in SW 15.2 mph 19.9 mph 92% 0 in
09:34 55.6 °F 53.6 °F 29.5 in SSW 14.1 mph 19.9 mph 92% 0 in
09:39 55.8 °F 53.6 °F 29.5 in SSW 14.1 mph 19.9 mph 92% 0 in
09:42 55.8 °F 53.6 °F 29.5 in WSW 10.3 mph 19.2 mph 92% 0 in
09:44 55.8 °F 53.6 °F 29.5 in SSW 13.2 mph 20.1 mph 92% 0 in
09:49 56.1 °F 53.6 °F 29.5 in South 11 mph 20.1 mph 92% 0 in
09:51 56.1 °F 53.6 °F 29.5 in SW 10.7 mph 20.1 mph 92% 0 in
09:55 56.3 °F 55.4 °F 29.5 in SSW 8.9 mph 17.4 mph 91% 0 in
09:58 56.3 °F 55.4 °F 29.5 in South 12.8 mph 17 mph 91% 0 in
10:03 56.3 °F 55.4 °F 29.5 in SSW 15.2 mph 19 mph 91% 0 in
10:04 56.3 °F 55.4 °F 29.5 in WSW 12.3 mph 19 mph 91% 0 in
10:07 56.5 °F 55.4 °F 29.5 in WSW 7.6 mph 19 mph 91% 0 in
10:09 56.5 °F 55.4 °F 29.5 in South 9.8 mph 19 mph 91% 0 in
10:14 56.5 °F 53.6 °F 29.5 in SW 12.5 mph 17.7 mph 90% 0 in
10:19 56.7 °F 53.6 °F 29.5 in SW 9.4 mph 18.6 mph 90% 0 in
10:20 56.7 °F 53.6 °F 29.5 in SSW 12.5 mph 18.6 mph 90% 0 in
10:25 56.7 °F 53.6 °F 29.5 in SSW 15.9 mph 18.6 mph 89% 0 in
10:27 56.7 °F 53.6 °F 29.5 in WSW 12.5 mph 18.6 mph 89% 0 in
10:32 56.7 °F 53.6 °F 29.5 in SSW 8.1 mph 16.6 mph 89% 0 in
10:34 56.7 °F 53.6 °F 29.5 in SSW 10.3 mph 16.1 mph 89% 0 in
10:36 56.7 °F 53.6 °F 29.5 in WSW 10.5 mph 16.1 mph 89% 0 in
10:39 56.7 °F 53.6 °F 29.5 in SSW 10.3 mph 17.2 mph 89% 0 in
10:45 56.8 °F 53.6 °F 29.5 in SW 22.8 mph 26.2 mph 88% 0 in
10:46 56.8 °F 53.6 °F 29.5 in WSW 12.1 mph 26.2 mph 88% 0 in
10:51 57.2 °F 53.6 °F 29.5 in SSW 17 mph 26.2 mph 86% 0 in
10:55 57.4 °F 53.6 °F 29.5 in SSW 12.8 mph 22.8 mph 86% 0 in
10:56 57.4 °F 53.6 °F 29.5 in WSW 13.4 mph 22.8 mph 86% 0 in
11:01 57.4 °F 53.6 °F 29.5 in SW 15.4 mph 24.4 mph 85% 0 in
11:02 57.4 °F 53.6 °F 29.5 in SSW 19.5 mph 24.4 mph 85% 0 in
11:04 57.4 °F 53.6 °F 29.5 in SSW 15.9 mph 24.4 mph 85% 0 in
11:08 57.4 °F 53.6 °F 29.5 in SW 21 mph 24.4 mph 84% 0 in
11:13 57.4 °F 53.6 °F 29.5 in WSW 10.5 mph 23.7 mph 85% 0 in
11:18 57.4 °F 53.6 °F 29.5 in SW 20.4 mph 27.5 mph 84% 0 in
11:19 57.4 °F 53.6 °F 29.5 in SSW 15.7 mph 27.5 mph 84% 0 in
11:23 57.6 °F 53.6 °F 29.5 in SW 16.3 mph 27.5 mph 85% 0 in
11:28 57.4 °F 53.6 °F 29.5 in SW 13 mph 23.9 mph 84% 0 in
11:34 57.4 °F 53.6 °F 29.5 in SW 15.2 mph 23.9 mph 85% 0 in
11:38 57.4 °F 53.6 °F 29.5 in SW 26.8 mph 27.7 mph 84% 0 in
11:43 57.4 °F 51.8 °F 29.5 in WSW 13.4 mph 27.7 mph 83% 0 in
11:49 57.6 °F 53.6 °F 29.5 in WSW 15.2 mph 24.6 mph 83% 0 in
11:50 57.6 °F 53.6 °F 29.5 in South 10.5 mph 24.6 mph 83% 0 in
11:55 57.6 °F 53.6 °F 29.5 in SSW 22.1 mph 26.6 mph 82% 0 in
11:57 57.6 °F 53.6 °F 29.5 in SW 20.8 mph 26.6 mph 82% 0 in
12:02 57.4 °F 51.8 °F 29.5 in WSW 22.4 mph 25.1 mph 82% 0 in
12:04 57 °F 53.6 °F 29.5 in WSW 19.9 mph 25.1 mph 86% 0 in
12:09 55.8 °F 53.6 °F 29.5 in West 16.8 mph 28.6 mph 90% 0.06 in
12:10 55.6 °F 53.6 °F 29.5 in WSW 24.2 mph 28.6 mph 90% 0.07 in
12:11 55.4 °F 53.6 °F 29.5 in WSW 25.1 mph 28.6 mph 91% 0.09 in
12:16 54.9 °F 53.6 °F 29.5 in WSW 12.5 mph 28.6 mph 93% 0.09 in
12:17 54.9 °F 53.6 °F 29.5 in WSW 15.7 mph 28.6 mph 94% 0.1 in
12:18 54.9 °F 53.6 °F 29.5 in WSW 18.8 mph 25.3 mph 94% 0.1 in
12:22 54.7 °F 53.6 °F 29.5 in WSW 15.2 mph 25.7 mph 95% 0.1 in
12:27 54.5 °F 55.4 °F 29.5 in West 19.9 mph 26.4 mph 96% 0.11 in
12:31 54.5 °F 55.4 °F 29.5 in WSW 13.2 mph 26.4 mph 97% 0.11 in
12:34 54.5 °F 55.4 °F 29.5 in SW 13.9 mph 26.4 mph 98% 0.12 in
12:39 54.5 °F 55.4 °F 29.5 in WSW 17.2 mph 19.9 mph 98% 0.12 in
12:42 54.3 °F 55.4 °F 29.5 in West 11 mph 20.1 mph 98% 0.13 in
12:47 54.3 °F 55.4 °F 29.5 in WSW 19.9 mph 24.2 mph 98% 0.13 in
12:49 54.1 °F 55.4 °F 29.5 in WSW 16.1 mph 24.2 mph 98% 0.15 in
12:54 54.1 °F 55.4 °F 29.5 in WSW 15.4 mph 24.2 mph 98% 0.15 in
12:59 54 °F 53.6 °F 29.5 in WSW 15.4 mph 17.7 mph 98% 0.15 in
13:03 54 °F 53.6 °F 29.5 in WSW 13.2 mph 17 mph 98% 0.15 in
13:04 54 °F 53.6 °F 29.5 in WSW 10.5 mph 17 mph 98% 0.16 in
13:09 54 °F 53.6 °F 29.5 in SW 11 mph 15.2 mph 98% 0.09 in
13:12 54 °F 53.6 °F 29.5 in WSW 13.4 mph 15.2 mph 98% 0.07 in
13:17 54 °F 53.6 °F 29.5 in SW 14.8 mph 15.4 mph 98% 0.07 in
13:22 54 °F 53.6 °F 29.5 in WSW 9.6 mph 15.4 mph 98% 0.07 in
13:27 54 °F 53.6 °F 29.5 in WSW 9.4 mph 15.4 mph 98% 0.06 in
13:32 54 °F 53.6 °F 29.5 in WSW 10.7 mph 14.5 mph 98% 0.05 in
13:37 54 °F 53.6 °F 29.5 in WSW 12.1 mph 16.8 mph 98% 0.06 in
13:38 54 °F 53.6 °F 29.5 in WSW 11.4 mph 17.2 mph 98% 0.06 in
13:43 53.8 °F 53.6 °F 29.5 in SW 10.5 mph 17.4 mph 98% 0.05 in
13:45 53.8 °F 53.6 °F 29.5 in WSW 10.3 mph 17.4 mph 98% 0.05 in
13:50 53.8 °F 53.6 °F 29.5 in WSW 11 mph 13.6 mph 98% 0.05 in
13:52 53.8 °F 53.6 °F 29.5 in WSW 15.9 mph 15.9 mph 98% 0.05 in
13:57 53.8 °F 53.6 °F 29.5 in SW 12.3 mph 15.9 mph 98% 0.05 in
14:01 53.8 °F 53.6 °F 29.5 in SW 10.1 mph 15.9 mph 98% 0.05 in
14:06 53.8 °F 53.6 °F 29.5 in SW 10.7 mph 15.4 mph 98% 0.03 in
14:11 53.8 °F 53.6 °F 29.5 in SW 9.8 mph 17 mph 98% 0.05 in
14:15 53.8 °F 53.6 °F 29.5 in WSW 7.8 mph 17.7 mph 98% 0.05 in
14:18 53.8 °F 53.6 °F 29.5 in SW 11.9 mph 17.7 mph 98% 0.03 in
14:21 53.8 °F 53.6 °F 29.5 in SW 7.6 mph 17.7 mph 98% 0.05 in
14:26 53.8 °F 53.6 °F 29.5 in SW 8.5 mph 13.2 mph 98% 0.05 in
14:28 53.8 °F 53.6 °F 29.5 in WSW 5.8 mph 13.2 mph 98% 0.05 in
14:33 53.6 °F 53.6 °F 29.5 in SW 12.5 mph 13.2 mph 98% 0.04 in
14:35 53.6 °F 53.6 °F 29.5 in SW 7.8 mph 12.8 mph 98% 0.05 in
14:40 53.6 °F 53.6 °F 29.5 in WSW 4.9 mph 12.8 mph 98% 0.05 in
14:44 53.6 °F 53.6 °F 29.5 in WSW 7.4 mph 12.5 mph 98% 0.05 in
14:49 53.6 °F 53.6 °F 29.5 in SW 8.1 mph 15.4 mph 98% 0.05 in
14:53 53.4 °F 53.6 °F 29.5 in WSW 7.6 mph 15.4 mph 98% 0.05 in
14:58 53.4 °F 53.6 °F 29.5 in WSW 13 mph 15.4 mph 98% 0.05 in
14:59 53.4 °F 53.6 °F 29.5 in SSW 6.3 mph 13 mph 98% 0.05 in
15:03 53.2 °F 53.6 °F 29.5 in WSW 8.5 mph 13.2 mph 98% 0.05 in
15:06 53.2 °F 53.6 °F 29.5 in SSW 10.5 mph 13.2 mph 98% 0.06 in
15:11 53.2 °F 53.6 °F 29.5 in SW 9.6 mph 13.2 mph 98% 0.05 in
15:16 53.2 °F 53.6 °F 29.5 in SW 8.5 mph 13 mph 98% 0.06 in
15:21 53.2 °F 53.6 °F 29.5 in SSW 6 mph 13 mph 98% 0.05 in
15:26 53.2 °F 53.6 °F 29.4 in SSW 2.2 mph 9.8 mph 98% 0.05 in
15:31 53.2 °F 53.6 °F 29.4 in SSW 7.4 mph 9.8 mph 98% 0.06 in
15:35 53.2 °F 53.6 °F 29.4 in SW 7.2 mph 8.7 mph 98% 0.05 in
15:40 53.2 °F 53.6 °F 29.4 in SSW 7.2 mph 8.7 mph 98% 0.05 in
15:45 53.2 °F 53.6 °F 29.4 in SW 7.4 mph 8.7 mph 98% 0.05 in
15:47 53.1 °F 53.6 °F 29.4 in SW 5.8 mph 8.7 mph 98% 0.03 in
15:52 53.1 °F 53.6 °F 29.4 in WSW 6.5 mph 8.7 mph 98% 0.05 in
15:53 53.1 °F 53.6 °F 29.4 in SW 6 mph 8.7 mph 98% 0.05 in
15:58 53.1 °F 53.6 °F 29.4 in SSW 7.4 mph 8.7 mph 98% 0.05 in
16:01 53.1 °F 53.6 °F 29.4 in SW 5.4 mph 8.7 mph 98% 0.05 in
16:06 53.1 °F 53.6 °F 29.4 in SW 6.3 mph 8.7 mph 98% 0.03 in
16:07 53.1 °F 53.6 °F 29.4 in SW 6.5 mph 8.7 mph 98% 0.03 in
16:08 53.1 °F 53.6 °F 29.4 in SW 7.8 mph 8.7 mph 98% 0.03 in
16:13 53.1 °F 53.6 °F 29.4 in SW 8.5 mph 9.6 mph 98% 0.02 in
16:16 53.1 °F 53.6 °F 29.4 in SSW 10.3 mph 11 mph 98% 0.02 in
16:21 53.1 °F 53.6 °F 29.4 in SSW 9.4 mph 11 mph 98% 0.04 in
16:26 53.1 °F 53.6 °F 29.4 in WSW 9.6 mph 13.2 mph 98% 0.04 in
16:31 53.1 °F 53.6 °F 29.4 in SSW 8.5 mph 14.8 mph 98% 0.03 in
16:36 52.9 °F 53.6 °F 29.4 in SW 10.7 mph 14.8 mph 98% 0.03 in
16:39 52.9 °F 53.6 °F 29.4 in SSW 12.3 mph 13.2 mph 98% 0.03 in
16:44 52.9 °F 53.6 °F 29.4 in WSW 13.4 mph 13.4 mph 98% 0.04 in
16:47 52.9 °F 53.6 °F 29.4 in SW 13.9 mph 13.9 mph 98% 0.04 in
16:50 52.7 °F 53.6 °F 29.4 in SW 13 mph 13.9 mph 98% 0.03 in
16:52 52.7 °F 53.6 °F 29.4 in SW 7.6 mph 13.9 mph 98% 0.03 in
16:57 52.7 °F 53.6 °F 29.4 in SW 10.7 mph 17.4 mph 98% 0.03 in
17:00 52.7 °F 53.6 °F 29.4 in SSW 10.5 mph 17.4 mph 98% 0.03 in
17:05 52.7 °F 53.6 °F 29.4 in SW 8.7 mph 17.4 mph 98% 0.03 in
17:06 52.7 °F 53.6 °F 29.4 in SW 8.7 mph 12.5 mph 98% 0.04 in
17:10 52.7 °F 53.6 °F 29.4 in SSW 7.6 mph 14.3 mph 98% 0.04 in
17:13 52.7 °F 53.6 °F 29.4 in SW 12.5 mph 14.3 mph 98% 0.04 in
17:18 52.7 °F 53.6 °F 29.4 in SW 8.1 mph 14.8 mph 98% 0.04 in
17:19 52.7 °F 53.6 °F 29.4 in WSW 12.3 mph 14.8 mph 98% 0.04 in
17:24 52.5 °F 51.8 °F 29.4 in WSW 10.7 mph 13.2 mph 98% 0.03 in
17:25 52.5 °F 51.8 °F 29.4 in WSW 10.5 mph 13.2 mph 98% 0.03 in
17:30 52.5 °F 51.8 °F 29.4 in WSW 10.3 mph 14.8 mph 98% 0.03 in
17:31 52.3 °F 51.8 °F 29.4 in WSW 10.1 mph 14.8 mph 98% 0.03 in
17:32 52.3 °F 51.8 °F 29.4 in SW 8.7 mph 14.8 mph 98% 0.03 in
17:37 52.3 °F 51.8 °F 29.4 in SSW 7.8 mph 14.8 mph 98% 0.05 in
17:41 52.3 °F 51.8 °F 29.4 in WSW 9.8 mph 13.9 mph 98% 0.05 in
17:44 52.2 °F 51.8 °F 29.4 in WSW 13.4 mph 15.4 mph 98% 0.05 in
17:49 51.8 °F 51.8 °F 29.4 in WSW 23 mph 24.2 mph 98% 0.07 in
17:51 51.8 °F 51.8 °F 29.4 in WSW 28.9 mph 29.5 mph 98% 0.09 in
17:56 51.4 °F 51.8 °F 29.5 in West 17.9 mph 29.5 mph 98% 0.1 in
17:58 51.3 °F 51.8 °F 29.5 in WSW 22.4 mph 29.5 mph 98% 0.11 in
17:59 51.3 °F 51.8 °F 29.5 in WSW 20.6 mph 29.5 mph 98% 0.11 in
18:04 50.9 °F 51.8 °F 29.5 in SW 16.1 mph 23.7 mph 98% 0.12 in
18:05 50.9 °F 51.8 °F 29.5 in WSW 12.5 mph 23.7 mph 98% 0.11 in
18:10 50.5 °F 50 °F 29.5 in WSW 14.5 mph 19 mph 98% 0.12 in
18:14 50.4 °F 50 °F 29.4 in WSW 14.1 mph 17.7 mph 98% 0.12 in
18:15 50.4 °F 50 °F 29.4 in WSW 14.8 mph 17.7 mph 98% 0.12 in
18:17 50.2 °F 50 °F 29.4 in SW 10.7 mph 17.7 mph 98% 0.12 in
18:22 50 °F 50 °F 29.4 in WSW 11.2 mph 15.4 mph 98% 0.11 in
18:23 50 °F 50 °F 29.4 in West 10.1 mph 15.4 mph 98% 0.11 in
18:28 50 °F 50 °F 29.4 in SW 11.4 mph 19.2 mph 97% 0.11 in
18:29 50 °F 50 °F 29.4 in WSW 11 mph 19.2 mph 97% 0.11 in
18:34 49.8 °F 50 °F 29.4 in SW 12.8 mph 19.2 mph 98% 0.12 in
18:35 49.8 °F 50 °F 29.4 in SW 13.2 mph 16.1 mph 98% 0.12 in
18:36 49.8 °F 50 °F 29.4 in WSW 14.8 mph 16.1 mph 98% 0.11 in
18:41 49.8 °F 50 °F 29.4 in SSW 9.8 mph 16.1 mph 98% 0.11 in
18:43 49.8 °F 50 °F 29.4 in SW 12.3 mph 15.4 mph 98% 0.1 in
18:48 49.8 °F 50 °F 29.4 in SSW 8.5 mph 13.2 mph 98% 0.07 in
18:49 49.8 °F 50 °F 29.4 in WSW 7.2 mph 13.2 mph 98% 0.06 in
18:53 49.8 °F 50 °F 29.4 in SW 7.6 mph 13.2 mph 98% 0.05 in
18:55 49.8 °F 50 °F 29.4 in SW 7.6 mph 12.5 mph 98% 0.05 in
19:00 49.8 °F 50 °F 29.4 in SSW 8.7 mph 12.5 mph 98% 0.03 in
19:02 49.8 °F 50 °F 29.4 in SW 10.5 mph 10.7 mph 98% 0.03 in
19:07 49.8 °F 50 °F 29.4 in SW 8.7 mph 12.8 mph 98% 0.03 in
19:12 49.8 °F 50 °F 29.4 in SSW 7.4 mph 12.8 mph 98% 0.01 in
19:18 49.8 °F 50 °F 29.4 in WSW 12.5 mph 13.2 mph 98% 0.01 in
19:21 49.8 °F 50 °F 29.4 in SSW 10.3 mph 13.2 mph 98% 0.01 in
19:26 49.8 °F 50 °F 29.4 in SW 16.8 mph 17.9 mph 98% 0.01 in
19:29 50 °F 50 °F 29.4 in SW 9.6 mph 17.9 mph 98% 0.01 in
19:34 50 °F 50 °F 29.4 in WSW 15.4 mph 17.9 mph 97% 0 in
19:35 50 °F 50 °F 29.4 in SW 15.7 mph 17.9 mph 97% 0 in
19:39 50 °F 50 °F 29.4 in WSW 16.3 mph 17.4 mph 97% 0 in
19:42 50.2 °F 50 °F 29.4 in WSW 13.2 mph 17.4 mph 97% 0 in
19:47 50.2 °F 50 °F 29.4 in WSW 13 mph 17.4 mph 97% 0 in
19:50 50.2 °F 50 °F 29.4 in WSW 10.5 mph 17.4 mph 97% 0 in
19:55 50.2 °F 50 °F 29.4 in WSW 15.7 mph 23.9 mph 96% 0 in
19:57 50.2 °F 50 °F 29.4 in WSW 22.1 mph 25.5 mph 96% 0 in
20:02 50.4 °F 48.2 °F 29.4 in WSW 14.3 mph 25.5 mph 93% 0 in
20:07 50.2 °F 48.2 °F 29.4 in WSW 17.4 mph 24.6 mph 92% 0 in
20:09 50.2 °F 48.2 °F 29.4 in WSW 19.9 mph 23.9 mph 92% 0 in
20:14 50.2 °F 48.2 °F 29.4 in WSW 23.7 mph 27.1 mph 91% 0 in
20:15 50.2 °F 48.2 °F 29.4 in SW 15.2 mph 27.1 mph 91% 0 in
20:20 50.2 °F 48.2 °F 29.4 in WSW 17.2 mph 27.1 mph 91% 0 in
20:23 50.2 °F 48.2 °F 29.4 in WSW 10.7 mph 23.9 mph 91% 0 in
20:25 50.2 °F 48.2 °F 29.4 in WSW 14.3 mph 23.9 mph 91% 0 in
20:30 50 °F 46.4 °F 29.4 in WSW 15.2 mph 23.9 mph 88% 0 in
20:35 49.8 °F 48.2 °F 29.4 in WSW 13 mph 20.8 mph 89% 0 in
20:38 49.8 °F 48.2 °F 29.4 in WSW 15.2 mph 22.6 mph 89% 0 in
20:40 49.8 °F 48.2 °F 29.4 in WSW 17.2 mph 24.6 mph 89% 0 in
20:44 49.6 °F 46.4 °F 29.4 in WSW 17.2 mph 24.6 mph 90% 0 in
20:49 49.6 °F 46.4 °F 29.4 in WSW 20.4 mph 24.6 mph 90% 0 in
20:54 49.6 °F 46.4 °F 29.4 in WSW 18.6 mph 21.9 mph 90% 0 in
20:58 49.8 °F 48.2 °F 29.4 in SW 12.3 mph 20.4 mph 90% 0 in
21:04 49.8 °F 48.2 °F 29.4 in WSW 11 mph 20.8 mph 89% 0 in
21:09 49.8 °F 46.4 °F 29.4 in WSW 15.7 mph 21 mph 88% 0 in
21:13 49.8 °F 46.4 °F 29.4 in WSW 15.2 mph 23.3 mph 87% 0 in
21:18 49.6 °F 46.4 °F 29.4 in WSW 23.3 mph 23.3 mph 87% 0 in
21:23 49.6 °F 46.4 °F 29.4 in WSW 18.6 mph 26.4 mph 86% 0 in
21:24 49.6 °F 46.4 °F 29.4 in WSW 15.4 mph 26.4 mph 86% 0 in
21:26 49.6 °F 46.4 °F 29.4 in WSW 10.5 mph 26.4 mph 86% 0 in
21:31 49.6 °F 46.4 °F 29.4 in WSW 15.2 mph 26.4 mph 87% 0 in
21:37 49.8 °F 46.4 °F 29.4 in WSW 19.9 mph 20.4 mph 87% 0 in
21:38 49.8 °F 46.4 °F 29.4 in WSW 13.2 mph 20.4 mph 87% 0 in
21:43 49.8 °F 46.4 °F 29.4 in WSW 23.5 mph 23.5 mph 87% 0 in
21:44 49.8 °F 46.4 °F 29.4 in WSW 15.4 mph 23.5 mph 87% 0 in
21:49 49.8 °F 46.4 °F 29.4 in WSW 13.2 mph 23.5 mph 85% 0 in
21:51 49.6 °F 46.4 °F 29.4 in WSW 16.6 mph 23.5 mph 85% 0 in
21:54 49.6 °F 44.6 °F 29.4 in WSW 15.4 mph 25.7 mph 84% 0 in
21:56 49.5 °F 44.6 °F 29.4 in WSW 15.4 mph 25.7 mph 84% 0 in
22:01 49.3 °F 44.6 °F 29.4 in WSW 13 mph 25.7 mph 83% 0 in
22:03 49.3 °F 44.6 °F 29.4 in SW 19.5 mph 24.4 mph 83% 0 in
22:07 49.1 °F 44.6 °F 29.4 in WSW 24.2 mph 30.4 mph 81% 0 in
22:08 49.1 °F 42.8 °F 29.4 in WSW 21.9 mph 30.4 mph 79% 0 in
22:13 48.9 °F 42.8 °F 29.4 in WSW 19 mph 37.4 mph 76% 0 in
22:14 48.9 °F 42.8 °F 29.4 in WSW 20.4 mph 37.4 mph 76% 0 in
22:19 48.6 °F 42.8 °F 29.4 in SW 23 mph 37.4 mph 77% 0 in
22:24 48.4 °F 42.8 °F 29.4 in WSW 19.7 mph 27.7 mph 78% 0 in
22:25 48.4 °F 42.8 °F 29.4 in WSW 17.4 mph 27.7 mph 78% 0 in
22:28 48.4 °F 42.8 °F 29.4 in WSW 17.4 mph 27.7 mph 78% 0 in
22:32 48.2 °F 42.8 °F 29.4 in WSW 12.1 mph 26.6 mph 78% 0 in
22:37 48.2 °F 42.8 °F 29.4 in SW 23.9 mph 28.9 mph 77% 0 in
22:40 48.2 °F 42.8 °F 29.4 in WSW 22.1 mph 28.9 mph 77% 0 in
22:45 48 °F 42.8 °F 29.4 in SW 18.1 mph 27.7 mph 78% 0 in
22:46 48 °F 42.8 °F 29.4 in WSW 17.7 mph 27.7 mph 78% 0 in
22:51 48 °F 42.8 °F 29.4 in WSW 23.5 mph 26.6 mph 77% 0 in
22:56 48 °F 42.8 °F 29.4 in SW 19.9 mph 26.6 mph 77% 0 in
22:58 48 °F 42.8 °F 29.4 in WSW 21.3 mph 28.9 mph 77% 0 in
23:03 47.8 °F 42.8 °F 29.4 in WSW 16.8 mph 28.9 mph 77% 0 in
23:06 47.8 °F 42.8 °F 29.4 in SW 18.6 mph 28.9 mph 77% 0 in
23:11 47.8 °F 42.8 °F 29.4 in SW 14.8 mph 27.1 mph 77% 0 in
23:14 47.7 °F 41 °F 29.5 in WSW 18.8 mph 30 mph 77% 0 in
23:17 47.7 °F 41 °F 29.5 in WSW 25.3 mph 30 mph 78% 0 in
23:22 47.8 °F 42.8 °F 29.5 in WSW 14.3 mph 28.4 mph 78% 0 in
23:23 47.8 °F 42.8 °F 29.5 in SW 19.5 mph 28.4 mph 78% 0 in
23:28 47.5 °F 42.8 °F 29.5 in WSW 17.7 mph 28.6 mph 82% 0 in
23:29 47.5 °F 42.8 °F 29.5 in WSW 23.7 mph 28.6 mph 82% 0 in
23:34 47.1 °F 42.8 °F 29.5 in WSW 19.5 mph 28.6 mph 85% 0.01 in
23:35 47.1 °F 42.8 °F 29.5 in West 22.6 mph 28.6 mph 85% 0.02 in
23:36 47.1 °F 42.8 °F 29.5 in WSW 25.7 mph 28.6 mph 85% 0.02 in
23:41 46.8 °F 42.8 °F 29.5 in WSW 15.9 mph 27.3 mph 87% 0.02 in
23:46 46.4 °F 42.8 °F 29.5 in WSW 33.1 mph 33.1 mph 87% 0.02 in
23:47 46.4 °F 42.8 °F 29.5 in West 27.7 mph 33.1 mph 87% 0.03 in
23:52 45.9 °F 42.8 °F 29.5 in WSW 23.7 mph 33.1 mph 87% 0.03 in
23:53 45.9 °F 42.8 °F 29.5 in WSW 22.6 mph 33.1 mph 87% 0.03 in
23:58 45.3 °F 42.8 °F 29.5 in WSW 19.7 mph 31.3 mph 89% 0.03 in
Données Historique de Météo Turbie

Mise a jour : 26/05/2018 05:52:13
Généré par Cumulus 1.9.4 (1099)